Location: Pian di Sc�
(43.6333°N, 11.5500°E)
Time: 10:20:27
(UTC+00:00)

COSMOS 2428 - Pass Details

Date: 07 August 2020
Orbit: 844 x 859 km, 70.9° (Epoch: 18 September)

Event Time Altitude Azimuth Distance (km) Brightness Sun altitude
Rises 00:22:11 0° 330° (NNW) 3,433 6.5 -28.3°
Reaches altitude 10° 00:24:41 10° 326° (NW) 2,495 5.6 -28.2°
Enters shadow 00:29:11 46° 287° (WNW) 1,132 3.2 -27.9°
